Flag for Dominican Republic Weather past 2 weeks in Punta Cana, Dominican Republic

Now
81 °F

Passing clouds.


Feels Like: 87 °F
Forecast: 76 / 88 °F
Wind: 5 mph from South

Location: Punta Cana

Current Time: Sep 3, 2015 at 8:26:52 PM

Latest Report: Sep 3, 2015 at 8:00 PM


Visibility: N/A

Pressure: 29.95 "Hg

Humidity: 89%

Dew point: 77 °F

Location of Punta CanaLocation

Historic Weather in Punta Cana — Graph

°F

Punta Cana temperature yesterday

Maximum temperature yesterday: 90 °F (at 2:00 PM)
Minimum temperature yesterday: 79 °F (at 2:00 AM)
Average temperature yesterday: 83 °F

Past Weeks' High & Low Weather Summary

 TemperatureHumidityPressure
High90 °F (Aug 26, 1:00 PM)100% (Aug 21, 4:00 AM)30.07 "Hg (Aug 21, 4:00 AM)
Low73 °F (Aug 23, 6:00 AM)62% (Aug 23, 2:00 PM)29.83 "Hg (Aug 28, 4:00 AM)
Average83 °F83%29.97 "Hg
* Reported Aug 19 7:00 PM — Sep 3 7:00 PM, Punta Cana, Weather by CustomWeather, © 2015

Note: Actual official high and low records may vary slightly from our data, if they occured in-between our weather recording intervals... More about our weather records

Advertising

Punta Cana weather history for previous 24 hours

 ConditionsComfort  
Time TempWeatherWind HumidityBarometerVisibility
7:00 PM
Thu, Sep 3
81 °FPassing clouds.7 mph89%29.92 "HgN/A
6:00 PM82 °FPassing clouds.7 mph84%29.95 "HgN/A
5:00 PM86 °FPassing clouds.9 mph79%29.95 "HgN/A
4:00 PM86 °FPassing clouds.7 mph79%29.92 "HgN/A
3:00 PM88 °FPassing clouds.9 mph75%29.95 "HgN/A
2:00 PM90 °FPassing clouds.9 mph71%29.95 "HgN/A
1:00 PM88 °FScattered clouds.9 mph75%29.98 "HgN/A
12:00 PM88 °FScattered clouds.9 mph70%29.98 "HgN/A
11:00 AM88 °FScattered clouds.9 mph70%30.01 "HgN/A
10:00 AM86 °FScattered clouds.12 mph75%30.01 "HgN/A
9:00 AM86 °FPassing clouds.9 mph75%29.98 "HgN/A
8:00 AM82 °FScattered clouds.No wind89%29.98 "HgN/A
7:00 AM77 °FPassing clouds.No wind100%29.95 "HgN/A
6:00 AM73 °FPassing clouds.No wind100%29.95 "HgN/A
5:00 AM75 °FPassing clouds.No wind94%29.92 "HgN/A
4:00 AM75 °FPassing clouds.No wind94%29.92 "HgN/A
3:00 AM75 °FPassing clouds.No wind100%29.95 "HgN/A
2:00 AM77 °FPassing clouds.No wind94%29.95 "HgN/A
1:00 AM75 °FPassing clouds.No wind100%29.98 "HgN/A
12:00 AM77 °FPassing clouds.No wind94%29.98 "HgN/A
11:00 PM
Wed, Sep 2
79 °FPassing clouds.No wind94%30.01 "HgN/A
10:00 PM79 °FPassing clouds.No wind94%30.01 "HgN/A
9:00 PM79 °FPassing clouds.No wind94%29.98 "HgN/A
8:00 PM81 °FPassing clouds.No wind89%29.98 "HgN/A
Weather by CustomWeather, © 2015

See weather overviewHow to use our weather pages